Dewpoint
39 36 36 40 40 40 40 42 47 52 52 51 51 53 54 57 56 52 52 50 49 49 51 53 56 60 63 64 63 65 65 66 68 68 68 68 68 68 68 71 71 71 71 71
35 32 32 40 43 44 43 43 48 51 52 51 46 47 55 55 53 56 51 49 49 49 51 52 57 59 61 61 61 65 65 67 67 67 66 68 68 67 68 70 71 72 71 73
33 31 39 39 37 38 39 39 49 50 49 50 52 51 56 58 59 60 56 53 48 49 50 51 57 58 60 61 62 66 65 67 66 66 67 69 69 68 69 71 71 72 74 74
28 29 32 35 39 37 33 36 49 48 47 45 50 44 51 57 57 56 56 55 55 49 50 51 56 58 59 61 62 66 65 67 66 68 69 69 66 66 67 69 71 72 73 73
21 21 35 36 36 35 27 28 46 46 41 40 49 42 43 54 57 57 58 60 59 52 50 51 55 58 59 60 62 66 66 67 67 69 70 69 66 66 68 69 69 72 73 72
21 23 30 33 33 23 26 19 20 36 40 35 42 37 41 50 51 56 58 59 59 61 51 52 54 58 59 60 62 67 67 66 67 68 70 71 70 68 69 72 71 73 72 71
20 21 22 21 19 20 21 20 19 22 33 34 41 39 42 51 55 57 57 59 61 61 60 53 55 57 59 61 62 65 68 67 68 68 68 70 71 69 68 70 72 73 72 72
15 15 18 22 18 19 25 20 19 16 34 38 44 43 46 52 55 59 56 57 60 60 60 56 54 57 59 61 63 63 68 67 68 70 69 70 71 73 71 71 72 72 73 73
17 20 20 21 20 19 19 17 23 39 41 39 43 47 51 53 53 56 57 59 58 58 58 57 55 57 59 61 63 64 66 68 69 70 70 71 72 72 74 72 71 73 73 73
23 20 20 11 9 13 17 15 9 24 35 33 38 44 45 52 54 54 54 57 59 59 61 59 54 55 60 61 63 65 66 67 69 71 72 71 72 72 72 72 70 71 71 73
35 20 19 16 16 9 6 11 9 20 35 31 33 43 55 55 56 55 55 54 60 53 57 60 61 55 60 61 62 65 67 68 69 70 70 73 73 73 73 73 72 71 71 74
36 19 18 14 20 19 7 6 8 10 35 39 39 44 57 56 58 57 57 59 59 56 54 58 63 58 59 60 61 64 67 68 70 71 71 71 74 74 73 72 73 75 73 71
35 23 18 22 23 25 26 28 34 30 40 41 40 46 56 56 57 59 59 59 58 61 68 64 64 63 59 57 62 65 68 68 70 70 71 72 72 74 73 73 72 73 73 73
38 22 18 25 22 28 25 28 28 27 34 46 43 43 47 50 53 58 60 64 66 66 66 66 63 66 66 65 65 66 67 68 69 70 71 71 72 73 73 73 73 72 72 73
28 27 30 30 28 28 30 28 27 27 44 38 41 37 44 48 52 63 65 65 63 64 66 66 65 65 66 64 65 66 67 69 70 70 70 71 72 73 73 73 73 73 72 72
30 28 29 26 31 30 30 32 42 45 48 44 44 46 49 50 58 63 63 63 61 62 65 65 65 64 64 64 64 64 66 67 68 68 66 69 72 72 72 72 72 72 72 72
26 27 28 29 29 29 28 33 34 49 46 45 46 50 54 57 59 62 62 61 60 60 64 65 65 66 65 65 67 67 68 69 67 66 69 67 68 71 73 73 73 73 73 73
25 25 30 27 27 25 30 38 39 52 50 52 52 52 54 56 58 62 63 61 60 59 60 64 65 65 65 65 66 67 68 68 68 66 66 65 68 66 66 67 68 68 69 70
25 27 23 23 28 26 37 38 39 48 44 52 51 52 54 57 58 59 62 62 60 59 58 61 63 62 62 64 64 64 63 64 64 65 66 69 68 65 64 63 64 66 66 67
33 30 26 29 26 25 38 41 40 45 43 50 51 51 55 57 55 58 61 61 60 60 59 61 62 62 62 62 64 62 61 61 62 64 65 66 68 66 63 63 62 64 64 67
35 37 30 32 28 38 46 45 44 33 43 52 52 53 56 56 58 59 60 60 60 59 59 61 62 61 61 62 63 62 62 63 63 64 65 65 66 66 65 64 62 62 63 64
39 37 41 42 36 38 48 48 42 48 50 52 52 52 51 51 53 56 56 57 58 59 59 61 62 62 64 63 62 62 63 63 65 67 68 68 68 65 65 65 65 62 62 63
38 42 42 44 45 48 47 46 48 50 48 49 49 52 50 49 53 52 53 53 55 57 58 59 60 61 61 62 62 62 61 62 62 62 63 66 69 69 68 68 69 66 66 66
43 47 44 44 47 46 44 45 46 45 44 44 45 44 45 48 53 55 55 56 56 57 58 60 61 60 60 63 64 63 64 66 64 64 66 67 67 66 67 68 68 66 66 67
42 47 45 44 46 47 48 45 46 46 46 45 46 47 50 54 53 54 54 55 57 58 60 59 60 62 62 63 63 63 65 66 65 66 66 64 64 65 66 64 61 63 61 61
44 41 40 40 46 46 48 47 48 46 46 49 51 56 56 53 54 55 57 60 61 63 64 61 62 62 62 65 65 66 67 68 66 62 62 59 63 62 64 64 62 54 55 54
Lifted_Index
1 1 1 1 1 0 -0 -1 -1 -1 -1 -1 -0 -0 -0 -1 -1 -0 -0 -0 0 1 1 1 0 -0 -1 -1 -1 -1 -1 -0 -0 -0 -1 -1 -1 -1 -1 -2 -2 -3 -4 -4
1 1 1 1 0 0 -0 -1 -1 -1 -1 -0 0 -0 -1 -1 -1 -1 -0 -0 0 0 1 1 0 -0 -1 -1 -1 -1 -1 -1 -0 -0 -1 -1 -1 -2 -2 -2 -2 -3 -4 -5
1 1 1 1 0 -0 -0 -1 -2 -2 -1 -0 -0 -1 -2 -2 -1 -1 -1 -0 0 0 1 1 0 0 -0 -0 -1 -1 -1 -1 -1 -1 -1 -1 -2 -2 -2 -2 -3 -4 -5 -5
1 1 1 1 0 -0 -0 -1 -1 -1 -1 -0 -1 -1 -1 -2 -2 -1 -1 -1 -0 0 0 0 0 0 -0 -0 -0 -1 -1 -1 -1 -1 -1 -2 -2 -2 -2 -3 -3 -4 -5 -5
1 2 2 1 1 0 0 -0 -1 -1 -0 -0 -0 -0 -1 -1 -2 -2 -2 -2 -1 -0 0 0 -0 -0 -0 -0 -1 -1 -1 -1 -1 -1 -2 -2 -2 -2 -2 -3 -4 -4 -5 -5
1 2 2 1 1 1 1 0 -0 -0 0 0 1 1 0 -1 -2 -2 -2 -2 -1 -1 -0 -0 -1 -1 -0 -0 -1 -1 -1 -1 -1 -2 -2 -3 -3 -3 -3 -3 -4 -4 -5 -5
1 1 1 1 1 1 1 1 0 -0 -0 0 1 1 0 -0 -2 -2 -2 -2 -1 -1 -1 -0 -1 -1 -1 -1 -1 -2 -2 -2 -2 -2 -3 -3 -4 -3 -3 -4 -5 -5 -5 -5
0 0 0 1 1 1 1 1 0 0 -0 0 1 1 1 -0 -1 -2 -2 -2 -2 -2 -1 -1 -1 -2 -1 -1 -1 -2 -2 -3 -3 -3 -3 -3 -4 -4 -4 -4 -5 -6 -6 -5
0 0 0 0 1 1 1 1 1 0 -0 -0 0 1 1 0 -1 -1 -1 -2 -2 -2 -2 -1 -1 -2 -2 -2 -2 -2 -3 -3 -4 -4 -4 -4 -4 -4 -4 -5 -5 -6 -6 -6
0 0 0 0 1 1 1 1 0 0 -0 -0 -0 0 0 -0 -0 -0 -0 -1 -2 -2 -2 -1 -1 -2 -2 -3 -3 -3 -3 -4 -4 -5 -5 -5 -4 -4 -4 -5 -5 -5 -5 -5
0 0 0 0 1 1 1 0 0 -0 -0 -0 -0 -1 -1 -1 -0 -0 -0 -0 -1 -2 -2 -2 -1 -2 -3 -3 -4 -4 -4 -4 -5 -5 -5 -5 -5 -5 -5 -5 -5 -5 -5 -5
1 0 0 0 0 0 0 0 0 -0 -0 -0 -0 -1 -2 -2 -2 -2 -2 -2 -2 -2 -3 -3 -2 -2 -2 -3 -3 -4 -5 -5 -5 -5 -6 -6 -6 -6 -5 -5 -5 -5 -5 -5
1 1 0 0 0 0 0 0 0 -0 -0 -0 -0 -1 -2 -3 -3 -3 -3 -4 -4 -4 -4 -4 -3 -2 -2 -2 -3 -4 -5 -5 -5 -5 -6 -6 -6 -6 -6 -6 -5 -5 -5 -5
2 1 1 1 1 1 0 0 0 0 -1 -1 -0 -1 -2 -3 -4 -4 -5 -5 -5 -5 -5 -4 -3 -2 -2 -2 -2 -3 -5 -5 -5 -5 -6 -6 -7 -7 -7 -6 -6 -5 -5 -5
2 2 1 1 1 1 1 1 0 -0 -1 -1 -0 -0 -1 -3 -5 -6 -6 -6 -6 -5 -5 -4 -3 -3 -2 -2 -2 -3 -4 -5 -5 -5 -6 -7 -7 -7 -7 -7 -7 -6 -6 -6
2 2 1 1 1 1 1 1 -0 -1 -1 -0 -1 -1 -2 -4 -5 -6 -6 -5 -4 -4 -4 -4 -4 -3 -3 -3 -3 -3 -4 -5 -5 -5 -5 -6 -6 -7 -7 -7 -7 -7 -7 -7
2 2 1 1 1 1 1 0 -1 -2 -1 -1 -2 -2 -3 -4 -5 -6 -5 -4 -2 -2 -2 -3 -3 -3 -3 -3 -3 -3 -4 -4 -4 -4 -3 -3 -4 -6 -7 -7 -7 -7 -7 -7
3 3 2 1 1 1 1 0 -1 -2 -3 -3 -3 -3 -4 -4 -5 -5 -4 -3 -2 -1 -1 -1 -1 -2 -2 -2 -3 -2 -2 -2 -3 -3 -2 -1 -3 -4 -6 -6 -7 -7 -7 -7
3 3 3 2 1 1 0 0 -1 -2 -3 -3 -3 -3 -4 -4 -4 -4 -4 -3 -2 -1 -1 -1 -1 -1 -1 -1 -1 -1 -1 -1 -1 -2 -2 -2 -2 -3 -4 -4 -5 -5 -5 -5
3 3 3 3 2 1 0 0 -1 -1 -2 -3 -3 -3 -3 -3 -3 -3 -3 -2 -2 -1 -1 -1 -1 -1 -1 -1 -1 -1 -0 0 -0 -1 -1 -1 -1 -1 -2 -2 -2 -3 -2 -2
2 2 2 3 2 1 0 0 -0 -0 -1 -2 -2 -2 -2 -2 -2 -2 -2 -2 -2 -1 -1 -1 -1 -1 -1 -1 -1 -1 -1 -0 -0 -1 -1 -1 -1 -1 -1 -1 -0 -0 -0 0
1 1 2 2 2 2 1 0 -0 -0 -1 -1 -1 -1 -1 -1 -1 -1 -1 -1 -1 -1 -1 -1 -1 -1 -1 -1 -1 -1 -1 -1 -1 -2 -2 -2 -2 -2 -2 -1 -1 -1 -0 0
1 1 1 1 1 1 1 0 0 -0 -0 -0 -0 0 1 0 0 -0 -0 -1 -1 -1 -1 -1 -1 -1 -1 -1 -1 -1 -1 -1 -2 -3 -3 -3 -4 -3 -3 -2 -2 -2 -2 -2
2 1 1 1 1 1 1 1 1 1 1 1 1 2 2 1 0 0 0 -0 -1 -1 -1 -1 -1 -1 -1 -2 -2 -2 -2 -3 -3 -3 -3 -4 -4 -4 -3 -3 -3 -3 -3 -3
2 2 2 2 2 2 2 2 2 2 2 2 2 2 2 1 0 0 0 -0 -1 -1 -2 -2 -1 -2 -2 -3 -3 -3 -4 -4 -4 -4 -4 -4 -3 -3 -3 -3 -2 -3 -3 -3
3 3 3 3 3 2 2 2 2 2 3 3 2 1 1 1 0 0 -0 -1 -1 -2 -2 -2 -2 -2 -2 -3 -4 -4 -5 -5 -4 -4 -4 -3 -3 -3 -3 -3 -2 -3 -3 -3